Location: Cicognara
(44.9500°N, 10.4667°E)
Time: 04:47:03
(UTC+00:00)

Cosmos 1025 Rocket - Pass Details

Date: 20 June 2021
Orbit: 593 x 619 km, 82.5° (Epoch: 28 July)

Event Time Altitude Azimuth Distance (km) Brightness Sun altitude
Exits shadow 20:23:42 - 180° (S) 2,182 5.4 -10.7°
Reaches altitude 10° 20:24:13 10° 179° (S) 1,973 5.2 -10.8°
Maximum altitude 20:28:34 71° 96° (E) 654 3.0 -11.3°
Drops below altitude 10° 20:32:55 10° 13° (NNE) 1,976 6.2 -11.7°
Sets 20:35:09 0° 11° (NNE) 2,882 7.1 -12.0°
